星链-5842 (STARLINK-5842 )

导读 | 豆包AI

STARLINK-5842是美国于北京时间2023年5月10日8时发射的星链卫星,属于SpaceX公司开发的星链低轨互联网星座。星链项目旨在通过数千颗低轨卫星为全球提供高速互联网接入服务,该卫星入轨后,将进一步扩充星链星座规模,提升全球网络覆盖能力与服务稳定性。

Basic Information
目录编号:
56491
目录名称:
STARLINK-5842
国际标识:
2023-064AV
轨道中心:
EARTH
卫星名称:
星链-5842
卫星全名:
星链-5842 (STARLINK-5842 )
卫星状态:
在轨 (已飞行1040 天)
发射日期:
2023-05-10 UTC
国别 :
美国 (US)
星等 :
--
Orbit Information
数据来源 国际轨道数据 AOE轨道数据
星历时间 2026-03-15T18:31:27+0800
11小时前
查看轨道信息
2026-03-12T09:00:00+0800
3天前
查看轨道信息
半长轴 6950.188km 6950.194km
偏心率 0.0002994 0.0002963
轨道倾角 69.999° 69.996°
近地点辐角 265.047° 259.156°
升交点赤经 89.962° 98.522°
平近点角 95.035° 143.606°
近地点 569.97km 569.997km
远地点 574.132km 574.117km
周期 96.107分钟 96.107分钟
每日圈数 14.983318 14.983298
Detailed Information
固有亮度:
5
最大亮度:
2.5
卫星平台:
Starlink v1.5
覆盖范围:
全球
运营商:
太空探索技术公司
运营商所在国:
美国
制造商(研发单位):
太空探索技术公司
制造商所在国:
美国
使用方式:
暂无
Satellite Introduction
星链(Starlink)计划是由太空探索技术公司(SpaceX)提出的一个巨型低轨卫星互联网星座项目,计划在2019年至2024年间在太空搭建由约1.2万颗卫星组成的“星链”网络,其中1584颗将部署在地球上空550千米处的近地轨道,并从2020年开始工作。该卫星仍在工作。
2D Orbit Map
3D Orbit Map
Orbit Altitude Analysis Chart
Orbit Inclination Analysis Chart
Orbit Comprehensive Analysis Chart
View Comprehensive Chart